Regional Weather Roundup
Issued by NWS Sioux Falls, SD

Home | Current Version | Previous Version | Graphics & Text | Print | Product List | Glossary Off
Versions: 1 2 3 4 5 6 7 8 9 10 11 12 13 14 15 16 17 18 19 20 21 22 23 24 25 26 27 28 29 30 31 32 33 34 35 36 37 38 39 40 41 42 43 44 45 46 47 48 49 50

000
ASUS43 KFSD 061810
RWRFSD

WEATHER ROUNDUP FOR SE SOUTH DAKOTA/SW MINNESOTA/NW IOWA
NATIONAL WEATHER SERVICE SIOUX FALLS SD
100 PM CDT WED MAY 06 2015

NOTE: "FAIR" INDICATES FEW OR NO CLOUDS BELOW 12,000 FEET WITH NO
SIGNIFICANT WEATHER AND OR OBSTRUCTIONS TO VISIBILITY.


SDZ038>040-050-052>070-061900-
SOUTHEAST SOUTH DAKOTA

CITY           SKY/WX    TMP DP  RH WIND       PRES   REMARKS
BROOKINGS      CLOUDY    64  61  88 SE22      29.78F
CHAMBERLAIN    RAIN      60  60  98 SE9       29.69F
6HR MIN TEMP:  59; 6HR MAX TEMP:  63; 6HR PCP:  0.05;

HURON          LGT RAIN  63  62  97 SE20G28   29.71F FOG
6HR MIN TEMP:  62; 6HR MAX TEMP:  64; 6HR PCP:  0.39;

MADISON        LGT RAIN  63  63 100 SE23G29   29.78F
MITCHELL       CLOUDY    65  62  90 SE23G32   29.71F
6HR MIN TEMP:  63; 6HR MAX TEMP:  65; 6HR PCP:  0.14;

SIOUX FALLS    CLOUDY    66  60  81 SE20G29   29.78F
6HR MIN TEMP:  62; 6HR MAX TEMP:  67; 6HR PCP:  0.04;

WINNER         LGT RAIN  65  60  84 SE16      29.68F
YANKTON        PTSUNNY   64  59  82 S18       29.75S
$$

MNZ071-072-080-081-089-090-097-098-061900-
SOUTHWEST MINNESOTA

CITY           SKY/WX    TMP DP  RH WIND       PRES   REMARKS
FAIRMONT       FAIR      73  37  27 SE25G31   29.88F
JACKSON        FAIR      72  59  64 SE20G25   29.88S
LUVERNE        LGT RAIN  64  61  88 SE18G26   29.83S
MARSHALL       FAIR      72  57  60 SE21G29   29.82F
6HR MIN TEMP:  57; 6HR MAX TEMP:  72; 6HR PCP:  0.02;

MONTEVIDEO     FAIR      68  61  77 S24       29.86F
REDWOOD FALLS  FAIR      74  58  57 SE20G29   29.86F
TRACY          FAIR      73  60  64 SE20G26   29.84F
WORTHINGTON    CLOUDY    64  59  82 S20G26    29.86R
$$

IAZ001>003-012>014-020>022-031-032-NEZ013-014-SDZ071-061900-
NORTHWEST IOWA

CITY           SKY/WX    TMP DP  RH WIND       PRES   REMARKS
CHEROKEE       CLOUDY    70  61  72 S24G33    29.84F
DENISON        PTSUNNY   72  63  73 S20G32    29.84F
ESTHERVILLE    LGT RAIN  70  61  73 SE26G37   29.87F
LE MARS        CLOUDY    68  59  73 S18G29    29.82S
ORANGE CITY    PTSUNNY   66  57  72 S21G30    29.82F
SHELDON        PTSUNNY   66 N/A N/A SE23G30   29.82F
SIOUX CITY     CLOUDY    68  60  75 S23G32    29.81F
6HR MIN TEMP:  63; 6HR MAX TEMP:  68; 6HR PCP:  0.05;

SPENCER        CLOUDY    68  61  78 SE21G29   29.86F
6HR MIN TEMP:  62; 6HR MAX TEMP:  74; 6HR PCP:  0.02;

STORM LAKE     FAIR      68  61  77 S26       29.87F
$$

ABBREVIATIONS USED IN REMARKS
   TC - TEMPERATURE IN CELSIUS
  WCI - WIND CHILL INDEX
   HX - HEAT INDEX
  VSB - VISIBILITY




USA.gov is the U.S. government's official web portal to all federal, state and local government web resources and services.